Weather History for KTQE - November, 2013

Change the Weather History Date:

Saturday, November 23, 2013

  Actual Average Record
Temperature  
Mean Temperature 14 °F -  
Max Temperature 21 °F 41 °F 62 °F (1968)
Min Temperature 8 °F 24 °F 1 °F (1950)
Degree Days  
Heating Degree Days 50    
Moisture  
Dew Point 5 °F    
Average Humidity 62    
Maximum Humidity 80    
Minimum Humidity 40    
Precipitation  
Precipitation 0.00 in - - ()
Sea Level Pressure  
Sea Level Pressure 30.84 in    
Wind  
Wind Speed 12 mph (North)    
Max Wind Speed 17 mph    
Max Gust Speed -    
Visibility 10 miles    
Events      
Averages and records for this station are not official NWS values.
T = Trace of Precipitation, MM = Missing Value Source: NWS Daily Summary

Daily Weather History Graph

Daily Weather History Graph

Search for Another Location

Airport or City:

Trip Planner

Search our weather history database for the weather conditions in past years. The results will help you decide how hot, cold, wet, or windy it might be!

Date:

Astronomy

Nov. 23, 2013 Rise Set
Actual Time 7:23 AM CST 4:58 PM CST
Civil Twilight 6:53 AM CST 5:28 PM CST
Nautical Twilight 6:19 AM CST 6:02 PM CST
Astronomical Twilight 5:46 AM CST 6:36 PM CST
Moon 10:29 PM CST (11/23) 11:39 AM CST (11/23)
Length of Visible Light 10h 35m
Length of Day
9h 34m
Waning Gibbous, 69% of the Moon is Illuminated
Nov 23
Waning Gibbous
Nov 25
Last Quarter
Dec 2
New
Dec 9
First Quarter
Dec 17
Full

Hourly Weather History & Observations

Time (CST) Temp. Windchill Dew Point Humidity Pressure Visibility Wind Dir Wind Speed Gust Speed Precip Events Conditions
12:54 AM 21.9 °F 7.8 °F 12.9 °F 68% 30.71 in 10.0 mi North 17.3 mph - N/A   Clear
1:54 AM 21.0 °F 8.6 °F 12.9 °F 71% 30.74 in 10.0 mi North 12.7 mph - N/A   Clear
2:54 AM 19.9 °F 6.2 °F 12.9 °F 74% 30.76 in 10.0 mi North 15.0 mph - N/A   Clear
3:47 AM 19.0 °F 5.0 °F 12.0 °F 74% 30.75 in 10.0 mi NNE 15.0 mph - N/A   Mostly Cloudy
3:54 AM 19.0 °F 6.1 °F 10.9 °F 71% 30.79 in 10.0 mi NNE 12.7 mph - N/A   Mostly Cloudy
4:31 AM 16.0 °F 2.9 °F 5.0 °F 62% 30.77 in 10.0 mi North 11.5 mph - N/A   Scattered Clouds
4:54 AM 16.0 °F 2.3 °F 6.1 °F 65% 30.83 in 10.0 mi North 12.7 mph - N/A   Clear
5:54 AM 12.9 °F -0.9 °F 3.9 °F 67% 30.87 in 10.0 mi North 11.5 mph - N/A   Clear
6:54 AM 12.9 °F -3.4 °F 3.9 °F 67% 30.89 in 10.0 mi North 16.1 mph - N/A   Clear
7:54 AM 12.0 °F -2.7 °F 3.9 °F 70% 30.91 in 10.0 mi North 12.7 mph - N/A   Clear
8:54 AM 14.0 °F -2.0 °F 3.9 °F 64% 30.93 in 10.0 mi North 16.1 mph - N/A   Clear
9:54 AM 16.0 °F 1.1 °F 3.9 °F 59% 30.95 in 10.0 mi NNW 15.0 mph - N/A   Clear
10:54 AM 18.0 °F 3.6 °F 3.9 °F 54% 30.94 in 10.0 mi North 15.0 mph - N/A   Clear
11:54 AM 19.9 °F 7.3 °F 3.0 °F 48% 30.92 in 10.0 mi North 12.7 mph - N/A   Clear
12:54 PM 21.0 °F 9.9 °F 1.9 °F 44% 30.90 in 10.0 mi North 10.4 mph - N/A   Clear
1:54 PM 21.9 °F 11.0 °F 3.0 °F 44% 30.88 in 10.0 mi North 10.4 mph - N/A   Clear
2:54 PM 21.9 °F 10.4 °F 1.0 °F 40% 30.87 in 10.0 mi North 11.5 mph - N/A   Clear
3:54 PM 21.0 °F 11.4 °F 1.9 °F 44% 30.87 in 10.0 mi North 8.1 mph - N/A   Clear
4:54 PM 18.0 °F 12.7 °F 1.9 °F 50% 30.86 in 10.0 mi NNW 3.5 mph - N/A   Clear
5:54 PM 17.1 °F 11.7 °F 1.9 °F 52% 30.85 in 10.0 mi NNW 3.5 mph - N/A   Clear
6:54 PM 15.1 °F - 3.0 °F 59% 30.85 in 10.0 mi Calm Calm - N/A   Clear
7:54 PM 10.9 °F - 3.0 °F 70% 30.84 in 10.0 mi Calm Calm - N/A   Clear
8:54 PM 10.0 °F 3.6 °F 3.0 °F 73% 30.83 in 10.0 mi SW 3.5 mph - N/A   Clear
9:54 PM 8.1 °F -0.5 °F 1.9 °F 76% 30.82 in 10.0 mi South 4.6 mph - N/A   Clear
10:54 PM 9.0 °F 2.4 °F 3.0 °F 77% 30.81 in 10.0 mi SSE 3.5 mph - N/A   Clear
11:54 PM 8.1 °F -0.5 °F 3.0 °F 80% 30.79 in 10.0 mi ESE 4.6 mph - N/A   Clear